Home > Weather > Quesnel > Past weeks

Flag for Canada Past Weather in Quesnel, British Columbia, Canada — Yesterday and Last 2 Weeks

Now
77 °F

Sunny.


Feels Like: 78 °F
Forecast: 58 / 82 °F
Wind: 2 mph from North

Location: Quesnel Airport

Current Time: Jul 28, 2016 at 1:24:42 PM

Latest Report: Jul 28, 2016 at 1:00 PM


Visibility: 9 mi

Pressure: 30.16 "Hg

Humidity: 44%

Dew Point: 54 °F

Location of QuesnelLocation

Past Weather in Quesnel — Graph

°F

Quesnel Temperature Yesterday

Maximum temperature yesterday: 84 °F (at 5:00 PM)
Minimum temperature yesterday: 50 °F (at 4:51 AM)
Average temperature yesterday: 66 °F

High & Low Weather Summary for the Past Weeks

 TemperatureHumidityPressure
High84 °F (Jul 27, 5:00 PM)100% (Jul 14, 2:03 AM)30.22 "Hg (Jul 14, 2:03 AM)
Low50 °F (Jul 16, 4:00 AM)32% (Jul 27, 3:00 PM)29.87 "Hg (Jul 18, 5:00 PM)
Average64 °F76%30.06 "Hg
* Reported Jul 13 12:00 PM — Jul 28 12:00 PM, Quesnel, Weather by CustomWeather, © 2016

Note: Actual official high and low records may vary slightly from our data, if they occured in-between our weather recording intervals... More about our weather records

Advertising

Quesnel Weather History for the Previous 24 Hours

Scroll right to see more
 ConditionsComfort  
Time TempWeatherWind HumidityBarometerVisibility
12:00 PM
Thu, Jul 28
75 °FSunny.3 mph50%30.18 "Hg9 mi
11:00 AM73 °FSunny.3 mph50%30.20 "Hg9 mi
10:00 AM72 °FSunny.6 mph57%30.21 "Hg9 mi
9:00 AM66 °FPartly sunny.5 mph73%30.21 "Hg9 mi
8:00 AM63 °FSunny.2 mph83%30.21 "Hg9 mi
7:00 AM57 °FScattered clouds.3 mph94%30.20 "Hg9 mi
6:00 AM57 °FMostly cloudy.No wind94%30.20 "Hg9 mi
5:00 AM55 °FClear.No wind100%30.18 "Hg9 mi
4:00 AM57 °FPassing clouds.No wind94%30.18 "Hg9 mi
3:00 AM59 °FPassing clouds.No wind88%30.17 "Hg9 mi
2:00 AM63 °FOvercast.2 mph83%30.16 "Hg9 mi
1:00 AM63 °FPartly cloudy.No wind88%30.16 "Hg9 mi
12:00 AM63 °FPassing clouds.3 mph88%30.15 "Hg9 mi
11:00 PM
Wed, Jul 27
63 °FPassing clouds.No wind88%30.14 "Hg9 mi
10:00 PM63 °FScattered clouds.2 mph88%30.12 "Hg9 mi
9:00 PM66 °FSunny.2 mph83%30.10 "Hg9 mi
8:00 PM75 °FPartly sunny.5 mph57%30.08 "Hg9 mi
7:01 PM77 °FLight rain. Mostly cloudy.5 mph42%30.11 "Hg9 mi
6:45 PM77 °FThundershowers. Partly sunny.6 mph47%30.10 "Hg9 mi
6:00 PM82 °FSunny.6 mph35%30.08 "Hg9 mi
5:00 PM84 °FPassing clouds.3 mph37%30.09 "Hg9 mi
4:00 PM81 °FSunny.No wind37%30.10 "Hg9 mi
3:00 PM82 °FSunny.2 mph32%30.12 "Hg9 mi
2:00 PM81 °FSunny.2 mph37%30.14 "Hg9 mi
1:00 PM79 °FSunny.7 mph45%30.16 "Hg9 mi
Weather by CustomWeather, © 2016

See weather overviewHow to use our weather pages